Location: Newark
(30.1000°N, 109.4667°E)
Time: 00:54:46
(UTC+00:00)

A-11 Canister half - Pass Details

Date: 23 February 2020
Orbit: 1517 x 1683 km, 47.2° (Epoch: 01 April)

Event Time Altitude Azimuth Distance (km) Brightness Sun altitude
Rises 13:43:52 0° 310° (NW) 4,812 12.3 -41.1°
Reaches altitude 10° 13:47:12 10° 315° (NW) 3,801 11.6 -41.8°
Enters shadow 13:53:39 40° 347° (NNW) 2,172 9.8 -43.1°
